This is the latest recevied weather packets stored in our database for station/object N8AMF. If no packets are shown the sender has not sent any weather packets the latest 10 day(s).
| Time | Temp. | Humidity | Pressure | Rain* | Wind** | Luminosity | Snow |
|---|---|---|---|---|---|---|---|
| 1778007580 | 15° C | 90% | 1006.9 hPa | 1.27 mm | - | 73 W/m² | - |
| 1778007278 | 15° C | 89% | 1007 hPa | 2.29 mm | - | 68 W/m² | - |
| 1778006974 | 15° C | 88% | 1006.9 hPa | 3.05 mm | - | 96 W/m² | - |
| 1778006671 | 15° C | 86% | 1007 hPa | 3.05 mm | - | 138 W/m² | - |
| 1778006368 | 15° C | 84% | 1007.2 hPa | 2.29 mm | - | 67 W/m² | - |
| 1778006065 | 15.56° C | 80% | 1007.1 hPa | 0.51 mm | - | 65 W/m² | - |
| 1778005761 | 16.11° C | 79% | 1006.9 hPa | 0 mm | - | 64 W/m² | - |
| 1778005458 | 16.11° C | 78% | 1007 hPa | 0 mm | - | 82 W/m² | - |
| 1778005155 | 16.67° C | 77% | 1006.7 hPa | 0 mm | - | 110 W/m² | - |
| 1778004852 | 16.67° C | 76% | 1006.8 hPa | 0 mm | - | 209 W/m² | - |
| 1778004549 | 16.67° C | 75% | 1006.8 hPa | 0 mm | - | 190 W/m² | - |
| 1778004245 | 16.67° C | 75% | 1006.9 hPa | 0 mm | - | 148 W/m² | - |
| 1778003942 | 16.67° C | 74% | 1006.7 hPa | 0 mm | - | 75 W/m² | - |
| 1778003638 | 17.22° C | 73% | 1006.9 hPa | 0 mm | - | 103 W/m² | - |
| 1778003334 | 17.22° C | 73% | 1006.7 hPa | 0 mm | - | 117 W/m² | - |
| 1778003032 | 17.78° C | 72% | 1006.9 hPa | 0 mm | - | 93 W/m² | - |
| 1778002728 | 17.78° C | 72% | 1006.6 hPa | 0 mm | - | 112 W/m² | - |
| 1778002425 | 17.78° C | 70% | 1006.6 hPa | 0 mm | - | 225 W/m² | - |
| 1778002122 | 18.33° C | 71% | 1006.6 hPa | 0 mm | - | 296 W/m² | - |
| 1778001820 | 17.78° C | 70% | 1006.6 hPa | 0 mm | - | 343 W/m² | - |
| 1778001519 | 17.78° C | 71% | 1006.5 hPa | 0 mm | - | 242 W/m² | - |
| 1778001217 | 17.78° C | 71% | 1006.7 hPa | 0 mm | - | 459 W/m² | - |
| 1778000913 | 17.22° C | 72% | 1006.5 hPa | 0 mm | - | 220 W/m² | - |
| 1778000610 | 17.78° C | 71% | 1006.5 hPa | 0 mm | - | 104 W/m² | - |
| 1778000305 | 17.78° C | 71% | 1006.6 hPa | 0 mm | - | 163 W/m² | - |
* Rain latest hour (hover to see other rain measurements)
** Current wind speed in m/s (hover to see current wind gust speed)